Time,TemperatureF,DewpointF,PressureIn,WindDirection,WindDirectionDegrees,WindSpeedMPH,WindSpeedGustMPH,Humidity,HourlyPrecipIn,Conditions,Clouds,dailyrainin,SoftwareType,DateUTC
2013-07-07 00:04:00,70.1,68.0,29.98,South,173,0.0,4.0,93,0.00,,,0.00,weatherlink.com 1.10,2013-07-07 05:04:00,
2013-07-07 00:19:00,70.0,68.0,29.98,South,173,3.0,4.0,93,0.00,,,0.00,weatherlink.com 1.10,2013-07-07 05:19:00,
2013-07-07 00:34:00,69.9,68.0,29.97,South,184,3.0,5.0,93,0.00,,,0.00,weatherlink.com 1.10,2013-07-07 05:34:00,
2013-07-07 00:49:00,69.7,68.0,29.97,South,180,2.0,6.0,93,0.00,,,0.00,weatherlink.com 1.10,2013-07-07 05:49:00,
2013-07-07 01:04:00,69.4,67.0,29.97,South,178,1.0,4.0,93,0.00,,,0.00,weatherlink.com 1.10,2013-07-07 06:04:00,
2013-07-07 01:18:00,69.1,67.0,29.97,SSE,165,2.0,6.0,94,0.00,,,0.00,weatherlink.com 1.10,2013-07-07 06:18:00,
2013-07-07 01:33:00,68.8,67.0,29.96,SSE,165,3.0,4.0,95,0.00,,,0.00,weatherlink.com 1.10,2013-07-07 06:33:00,
2013-07-07 01:48:00,68.5,67.0,29.96,SSE,167,3.0,6.0,95,0.00,,,0.00,weatherlink.com 1.10,2013-07-07 06:48:00,
2013-07-07 02:03:00,68.3,67.0,29.95,SSE,167,3.0,5.0,96,0.00,,,0.00,weatherlink.com 1.10,2013-07-07 07:03:00,
2013-07-07 02:18:00,68.3,67.0,29.95,South,169,2.0,5.0,96,0.00,,,0.00,weatherlink.com 1.10,2013-07-07 07:18:00,
2013-07-07 02:33:00,68.2,67.0,29.95,South,173,3.0,5.0,96,0.00,,,0.00,weatherlink.com 1.10,2013-07-07 07:33:00,
2013-07-07 02:49:00,68.0,67.0,29.95,South,173,2.0,3.0,96,0.00,,,0.00,weatherlink.com 1.10,2013-07-07 07:49:00,
2013-07-07 03:04:00,67.9,67.0,29.95,South,173,0.0,2.0,96,0.00,,,0.00,weatherlink.com 1.10,2013-07-07 08:04:00,
2013-07-07 03:19:00,67.9,67.0,29.95,South,173,3.0,4.0,96,0.00,,,0.00,weatherlink.com 1.10,2013-07-07 08:19:00,
2013-07-07 03:34:00,67.8,67.0,29.95,South,173,3.0,5.0,96,0.00,,,0.00,weatherlink.com 1.10,2013-07-07 08:34:00,
2013-07-07 03:49:00,67.6,67.0,29.95,South,173,1.0,5.0,96,0.00,,,0.00,weatherlink.com 1.10,2013-07-07 08:49:00,
2013-07-07 04:04:00,67.6,67.0,29.95,South,174,2.0,4.0,96,0.00,,,0.00,weatherlink.com 1.10,2013-07-07 09:04:00,
2013-07-07 04:19:00,67.4,66.0,29.95,SSE,164,3.0,6.0,95,0.00,,,0.00,weatherlink.com 1.10,2013-07-07 09:19:00,
2013-07-07 04:34:00,67.1,66.0,29.95,SSE,163,2.0,5.0,95,0.00,,,0.00,weatherlink.com 1.10,2013-07-07 09:34:00,
2013-07-07 04:49:00,67.0,66.0,29.95,SSE,163,1.0,3.0,95,0.00,,,0.00,weatherlink.com 1.10,2013-07-07 09:49:00,
2013-07-07 05:04:00,67.0,66.0,29.96,SSE,163,0.0,2.0,95,0.00,,,0.00,weatherlink.com 1.10,2013-07-07 10:04:00,
2013-07-07 05:19:00,67.0,66.0,29.95,SSE,163,0.0,3.0,95,0.00,,,0.00,weatherlink.com 1.10,2013-07-07 10:19:00,
2013-07-07 05:34:00,67.0,66.0,29.96,SSE,163,4.0,4.0,95,0.00,,,0.00,weatherlink.com 1.10,2013-07-07 10:34:00,
2013-07-07 05:49:00,67.0,66.0,29.96,SSE,163,0.0,4.0,95,0.00,,,0.00,weatherlink.com 1.10,2013-07-07 10:49:00,
2013-07-07 06:04:00,67.1,66.0,29.96,SSE,164,0.0,4.0,95,0.00,,,0.00,weatherlink.com 1.10,2013-07-07 11:04:00,
2013-07-07 06:19:00,67.1,65.0,29.97,SSE,164,1.0,4.0,94,0.00,,,0.00,weatherlink.com 1.10,2013-07-07 11:19:00,
2013-07-07 06:34:00,67.3,66.0,29.96,SSE,164,1.0,5.0,95,0.00,,,0.00,weatherlink.com 1.10,2013-07-07 11:34:00,
2013-07-07 06:49:00,67.6,66.0,29.97,South,172,3.0,5.0,95,0.00,,,0.00,weatherlink.com 1.10,2013-07-07 11:49:00,
2013-07-07 07:04:00,68.2,67.0,29.97,SSE,168,1.0,4.0,94,0.00,,,0.00,weatherlink.com 1.10,2013-07-07 12:04:00,
2013-07-07 07:19:00,68.5,67.0,29.97,SSW,195,1.0,5.0,93,0.00,,,0.00,weatherlink.com 1.10,2013-07-07 12:19:00,
2013-07-07 07:34:00,68.8,66.0,29.98,SSW,198,4.0,6.0,92,0.00,,,0.00,weatherlink.com 1.10,2013-07-07 12:34:00,
2013-07-07 07:49:00,69.6,67.0,29.98,SSW,197,1.0,6.0,90,0.00,,,0.00,weatherlink.com 1.10,2013-07-07 12:49:00,
2013-07-07 08:04:00,70.8,67.0,29.98,SSW,209,5.0,8.0,88,0.00,,,0.00,weatherlink.com 1.10,2013-07-07 13:04:00,
2013-07-07 08:19:00,71.8,68.0,29.98,SSW,194,2.0,10.0,86,0.00,,,0.00,weatherlink.com 1.10,2013-07-07 13:19:00,
2013-07-07 08:34:00,72.6,68.0,29.98,South,170,3.0,8.0,85,0.00,,,0.00,weatherlink.com 1.10,2013-07-07 13:34:00,
2013-07-07 08:49:00,73.9,69.0,29.98,South,170,2.0,8.0,83,0.00,,,0.00,weatherlink.com 1.10,2013-07-07 13:49:00,
2013-07-07 09:04:00,74.7,69.0,29.98,SE,145,6.0,8.0,81,0.00,,,0.00,weatherlink.com 1.10,2013-07-07 14:04:00,
2013-07-07 09:19:00,75.3,69.0,29.97,South,185,3.0,8.0,80,0.00,,,0.00,weatherlink.com 1.10,2013-07-07 14:19:00,
2013-07-07 09:34:00,76.4,69.0,29.97,South,183,6.0,9.0,78,0.00,,,0.00,weatherlink.com 1.10,2013-07-07 14:34:00,
2013-07-07 09:49:00,77.5,69.0,29.97,South,176,4.0,8.0,75,0.00,,,0.00,weatherlink.com 1.10,2013-07-07 14:49:00,
2013-07-07 10:04:00,77.8,69.0,29.97,South,184,3.0,8.0,75,0.00,,,0.00,weatherlink.com 1.10,2013-07-07 15:04:00,
2013-07-07 10:20:00,77.8,70.0,29.97,SSW,196,2.0,7.0,76,0.00,,,0.00,weatherlink.com 1.10,2013-07-07 15:20:00,
2013-07-07 10:35:00,78.1,70.0,29.98,South,182,5.0,7.0,75,0.00,,,0.00,weatherlink.com 1.10,2013-07-07 15:35:00,
2013-07-07 10:50:00,77.7,69.0,29.98,SSW,195,5.0,10.0,75,0.00,,,0.00,weatherlink.com 1.10,2013-07-07 15:50:00,
2013-07-07 11:05:00,77.7,70.0,29.98,SSE,162,5.0,7.0,77,0.00,,,0.00,weatherlink.com 1.10,2013-07-07 16:05:00,
2013-07-07 11:20:00,78.0,70.0,29.97,SSE,168,6.0,8.0,77,0.00,,,0.00,weatherlink.com 1.10,2013-07-07 16:20:00,
2013-07-07 11:35:00,78.2,70.0,29.97,South,179,4.0,10.0,77,0.00,,,0.00,weatherlink.com 1.10,2013-07-07 16:35:00,
2013-07-07 11:50:00,79.4,71.0,29.96,SW,217,6.0,10.0,75,0.00,,,0.00,weatherlink.com 1.10,2013-07-07 16:50:00,
2013-07-07 12:05:00,81.0,72.0,29.96,SSW,196,5.0,12.0,75,0.00,,,0.00,weatherlink.com 1.10,2013-07-07 17:05:00,
2013-07-07 12:20:00,81.6,72.0,29.97,SSW,207,5.0,12.0,73,0.00,,,0.00,weatherlink.com 1.10,2013-07-07 17:20:00,
2013-07-07 12:35:00,82.6,72.0,29.96,SSE,161,5.0,9.0,71,0.00,,,0.00,weatherlink.com 1.10,2013-07-07 17:35:00,
2013-07-07 12:50:00,83.4,72.0,29.95,SSW,207,6.0,11.0,68,0.00,,,0.00,weatherlink.com 1.10,2013-07-07 17:50:00,
2013-07-07 13:05:00,84.1,72.0,29.95,SW,232,3.0,10.0,68,0.00,,,0.00,weatherlink.com 1.10,2013-07-07 18:05:00,
2013-07-07 13:20:00,84.7,73.0,29.95,SE,143,3.0,12.0,68,0.00,,,0.00,weatherlink.com 1.10,2013-07-07 18:20:00,
2013-07-07 13:35:00,85.0,72.0,29.94,SSW,193,4.0,10.0,66,0.00,,,0.00,weatherlink.com 1.10,2013-07-07 18:35:00,
2013-07-07 13:50:00,85.4,73.0,29.95,SSW,194,7.0,10.0,66,0.00,,,0.00,weatherlink.com 1.10,2013-07-07 18:50:00,
2013-07-07 14:05:00,85.1,72.0,29.94,South,171,5.0,11.0,65,0.00,,,0.00,weatherlink.com 1.10,2013-07-07 19:05:00,
2013-07-07 14:20:00,86.6,73.0,29.94,SSW,205,6.0,10.0,64,0.00,,,0.00,weatherlink.com 1.10,2013-07-07 19:20:00,
2013-07-07 14:35:00,87.1,72.0,29.94,South,189,10.0,13.0,62,0.00,,,0.00,weatherlink.com 1.10,2013-07-07 19:35:00,
2013-07-07 14:51:00,85.7,72.0,29.94,SW,223,7.0,11.0,64,0.00,,,0.00,weatherlink.com 1.10,2013-07-07 19:51:00,
2013-07-07 15:06:00,85.1,72.0,29.93,SSW,213,4.0,9.0,66,0.00,,,0.00,weatherlink.com 1.10,2013-07-07 20:06:00,
2013-07-07 15:21:00,85.9,72.0,29.93,SSW,205,7.0,11.0,63,0.00,,,0.00,weatherlink.com 1.10,2013-07-07 20:21:00,
2013-07-07 15:36:00,86.1,73.0,29.93,SSE,155,4.0,12.0,65,0.00,,,0.00,weatherlink.com 1.10,2013-07-07 20:36:00,
2013-07-07 15:51:00,86.5,73.0,29.92,South,184,5.0,12.0,64,0.00,,,0.00,weatherlink.com 1.10,2013-07-07 20:51:00,
2013-07-07 16:06:00,87.4,74.0,29.92,SSE,163,6.0,10.0,64,0.00,,,0.00,weatherlink.com 1.10,2013-07-07 21:06:00,
2013-07-07 16:21:00,87.3,72.0,29.91,SSW,211,4.0,11.0,60,0.00,,,0.00,weatherlink.com 1.10,2013-07-07 21:21:00,
2013-07-07 16:36:00,86.1,73.0,29.92,SSW,196,7.0,13.0,65,0.00,,,0.00,weatherlink.com 1.10,2013-07-07 21:36:00,
2013-07-07 16:51:00,86.5,72.0,29.91,SSW,198,5.0,11.0,63,0.00,,,0.00,weatherlink.com 1.10,2013-07-07 21:51:00,
2013-07-07 17:05:00,85.5,73.0,29.91,SSW,203,3.0,10.0,66,0.00,,,0.00,weatherlink.com 1.10,2013-07-07 22:05:00,
2013-07-07 17:21:00,86.1,73.0,29.91,South,186,4.0,10.0,65,0.00,,,0.00,weatherlink.com 1.10,2013-07-07 22:21:00,
2013-07-07 17:36:00,85.8,73.0,29.90,SSW,213,8.0,11.0,66,0.00,,,0.00,weatherlink.com 1.10,2013-07-07 22:36:00,
2013-07-07 17:51:00,86.3,72.0,29.91,SSW,201,4.0,12.0,63,0.00,,,0.00,weatherlink.com 1.10,2013-07-07 22:51:00,
2013-07-07 18:06:00,85.7,73.0,29.91,South,179,2.0,9.0,65,0.00,,,0.00,weatherlink.com 1.10,2013-07-07 23:06:00,
2013-07-07 18:21:00,86.1,73.0,29.91,South,178,4.0,11.0,64,0.00,,,0.00,weatherlink.com 1.10,2013-07-07 23:21:00,
2013-07-07 18:36:00,85.5,73.0,29.91,South,176,2.0,6.0,66,0.00,,,0.00,weatherlink.com 1.10,2013-07-07 23:36:00,
2013-07-07 18:51:00,85.2,74.0,29.91,South,189,3.0,5.0,68,0.00,,,0.00,weatherlink.com 1.10,2013-07-07 23:51:00,
2013-07-07 19:06:00,84.6,74.0,29.91,SSE,167,1.0,5.0,70,0.00,,,0.00,weatherlink.com 1.10,2013-07-08 00:06:00,
2013-07-07 19:21:00,84.5,74.0,29.91,SSW,194,4.0,5.0,71,0.00,,,0.00,weatherlink.com 1.10,2013-07-08 00:21:00,
2013-07-07 19:36:00,84.4,74.0,29.91,SSW,196,4.0,6.0,71,0.00,,,0.00,weatherlink.com 1.10,2013-07-08 00:36:00,
2013-07-07 19:51:00,83.9,74.0,29.91,SSW,193,2.0,7.0,72,0.00,,,0.00,weatherlink.com 1.10,2013-07-08 00:51:00,
2013-07-07 20:06:00,83.1,74.0,29.91,SSW,192,3.0,4.0,73,0.00,,,0.00,weatherlink.com 1.10,2013-07-08 01:06:00,
2013-07-07 20:21:00,81.9,73.0,29.92,SSW,192,2.0,3.0,75,0.00,,,0.00,weatherlink.com 1.10,2013-07-08 01:21:00,
2013-07-07 20:36:00,80.7,73.0,29.92,SSW,192,2.0,3.0,77,0.00,,,0.00,weatherlink.com 1.10,2013-07-08 01:36:00,
2013-07-07 20:51:00,79.6,73.0,29.92,South,191,3.0,4.0,79,0.00,,,0.00,weatherlink.com 1.10,2013-07-08 01:51:00,
2013-07-07 21:06:00,78.9,72.0,29.93,South,191,1.0,4.0,80,0.00,,,0.00,weatherlink.com 1.10,2013-07-08 02:06:00,
2013-07-07 21:21:00,78.3,72.0,29.93,South,169,3.0,5.0,81,0.00,,,0.00,weatherlink.com 1.10,2013-07-08 02:21:00,
2013-07-07 21:36:00,77.7,71.0,29.93,South,169,2.0,4.0,81,0.00,,,0.00,weatherlink.com 1.10,2013-07-08 02:36:00,
2013-07-07 21:51:00,77.1,71.0,29.94,South,179,2.0,4.0,82,0.00,,,0.00,weatherlink.com 1.10,2013-07-08 02:51:00,
2013-07-07 22:06:00,76.8,71.0,29.94,SSE,168,3.0,5.0,83,0.00,,,0.00,weatherlink.com 1.10,2013-07-08 03:06:00,
2013-07-07 22:21:00,76.3,71.0,29.94,SSE,165,3.0,4.0,83,0.00,,,0.00,weatherlink.com 1.10,2013-07-08 03:21:00,
2013-07-07 22:36:00,76.3,71.0,29.94,SSE,157,4.0,5.0,83,0.00,,,0.00,weatherlink.com 1.10,2013-07-08 03:36:00,
2013-07-07 22:51:00,75.5,71.0,29.94,SSE,168,4.0,4.0,85,0.00,,,0.00,weatherlink.com 1.10,2013-07-08 03:51:00,
2013-07-07 23:06:00,75.1,71.0,29.95,South,176,2.0,4.0,86,0.00,,,0.00,weatherlink.com 1.10,2013-07-08 04:06:00,
2013-07-07 23:21:00,75.0,71.0,29.95,South,184,3.0,5.0,87,0.00,,,0.00,weatherlink.com 1.10,2013-07-08 04:21:00,
2013-07-07 23:36:00,74.6,71.0,29.95,South,173,3.0,7.0,88,0.00,,,0.00,weatherlink.com 1.10,2013-07-08 04:36:00,
2013-07-07 23:51:00,74.4,71.0,29.95,South,173,3.0,8.0,89,0.00,,,0.00,weatherlink.com 1.10,2013-07-08 04:51:00,